Regional Weather Roundup
Issued by NWS

Home | Current Version | Previous Version | Text Only | Print | Product List | Glossary On
Versions: 1 2 3 4 5 6 7 8 9 10 11 12 13 14 15 16 17 18 19 20 21 22 23 24 25 26 27 28 29 30 31 32 33 34 35 36 37 38 39 40 41 42 43 44 45 46 47 48 49 50
000
ASUS44 KOUN 191610
RWROK

WEATHER ROUNDUP FOR OKLAHOMA
NATIONAL WEATHER SERVICE NORMAN OK
1100 AM CDT SAT AUG 19 2017

NOTE: "FAIR" INDICATES FEW OR NO CLOUDS BELOW 12,000 FEET WITH NO
      SIGNIFICANT WEATHER AND/OR OBSTRUCTIONS TO VISIBILITY.

OKZ001>007-009>012-014-015-017-191700-
NORTHWEST OKLAHOMA AND THE PANHANDLE

CITY           SKY/WX    TMP DP  RH WIND       PRES   REMARKS
GAGE           SUNNY     90  66  45 SW12      30.03S HX  92
GUYMON         SUNNY     82  70  66 S10       30.06S
ENID/WOODRING  SUNNY     88  75  66 SW8       29.96F HX  97
$$

OKZ016-021>023-033>039-044-045-191700-
SOUTHWEST OKLAHOMA

CITY           SKY/WX    TMP DP  RH WIND       PRES   REMARKS
LAWTON/REGL    SUNNY     86  75  69 VRB6      30.01S HX  95
LAWTON/FT SILL SUNNY     86  78  76 SW5       30.00S HX  98
FREDERICK      SUNNY     87  74  64 W7        29.99R HX  95
CLINTON        SUNNY     87  68  52 SW8       30.04S HX  90
HOBART         SUNNY     88  73  61 SW7       30.02S HX  95
ALTUS AFB      SUNNY     86  73  63 N8        30.01S HX  93
$$

OKZ018>020-024>031-191700-
CENTRAL OKLAHOMA

CITY           SKY/WX    TMP DP  RH WIND       PRES   REMARKS
OKLAHOMA CITY  MOSUNNY   86  72  62 SW9       30.01R HX  92
OKC/WILEY POST SUNNY     87  75  67 SW13      30.00S HX  96
OKC/TINKER AFB SUNNY     88  72  59 SW8       30.00S HX  95
STILLWATER     SUNNY     90  72  55 SW13      29.98S HX  97
GUTHRIE        SUNNY     89  73  59 SW9       29.99S HX  97
$$

OKZ008-013-054>072-191700-
NORTHEAST OKLAHOMA

CITY           SKY/WX    TMP DP  RH WIND       PRES   REMARKS
TULSA          MOSUNNY   89  75  63 VRB7      29.96F HX  99
TULSA/JONES    SUNNY     88  74  63 SW7       29.98F HX  96
PONCA CITY     SUNNY     86  74  67 W6        29.97S HX  94
BARTLESVILLE   SUNNY     89  76  65 VRB3      29.98S HX 100
MUSKOGEE       SUNNY     88  76  67 SW7       30.00F HX  99
$$

OKZ032-040>043-046>053-073>077-191700-
SOUTH CENTRAL/SOUTHEAST OKLAHOMA

CITY           SKY/WX    TMP DP  RH WIND       PRES   REMARKS
ARDMORE/DWNTWN SUNNY     88  68  51 NW3       30.00S HX  91
MCALESTER      SUNNY     89  76  65 S5        30.01S HX 100
$$





USA.gov is the U.S. government's official web portal to all federal, state and local government web resources and services.